STARLINK-33828, 63493

Orbit data source: Space-Track

STARLINK-33828, 63493 is a payload satellite owned by SpaceX/Seattle (US) in LEO that was launched on Mon, 07 Apr 2025 UTC via an FALCON 9 launch vehicle from the Air Force Western Test Range (AFWTR). Payload-class satellites include a variety of spacecraft equipped with specific instruments for various scientific and technological missions. These include communications satellites like Starlink; space stations such as the ISS; scientific satellites like the Hubble; Earth observation satellites from companies like Planet Labs, Umbra, and HawkEye 360; GPS; miniature CubeSats for education and research; and military/defense satellites.

Loading next visibility...
Identifier
63493, 2025-071A
Orbit
LEO
Last TLE update
2 hours ago
Origin
Manufacturer
SpaceX/Seattle
Mission
Operational Commercial Communications
Bus & Motor
STARLINK V2MO, Unknown motor
Mass
575 kg wet, ~530 kg dry
Launch date (UTC)
2025-04-07 (3 months ago)
Launch vehicle
FALCON 9
Launch site
Air Force Western Test Range (AFWTR)
Object type
Payload
Rocket body
Debris
Shape & HBR
Box + 1 Pan, 14.5 m
Radar Cross Section
41.120 m², Large (>1 m²)

Expand to show TLE details & history

TLE from 2 hours ago
0 STARLINK-33828
1 63493U 25071A   25199.88930299  .00026844  00000-0  91495-3 0  9999
2 63493  53.1585 148.0707 0002481  81.6782 278.4500 15.30207486 17031
Epoch: 2025-07-18T21:20Z
TLE epoch observation values (Epoch: 2025-07-18T21:20:35.778Z)
Latitude
-0.00001°
Longitude
-109.01267°
Altitude
475.843 km
Speed
7.629 km/s
True Right ascension
09h 52m 16s
True Declination
0° 00' 00"
Sunlit
Object was in daylight at epoch
Visualization orbit readout
Latitude
53.1691°
Longitude
-13.58065°
Altitude
480.057 km
Speed
7.633 km/s
Apparent Right ascension
20h 43m 09s
Apparent Declination
16° 35' 36"
Sunlit
Object is in daylight
Visualization observer readout
Local Sidereal Time
12:06:37
Azimuth
50.762° ENE
Elevation
-16.299°
Doppler factor
1
Orbital elements
Apogee altitude
477.15 km
Perigee altitude
473.749 km
Semi-major axis
6,853.586 km
Eccentricity
0.00025
Inclination
53.1585°
RAAN
148.0707°
Arg. of periapsis
81.6782°
True anomaly
278.42188°
Mean anomaly
278.45°
Eccentric anomaly
278.43594°
Mean motion
3.82531 °/min
Orbital period
94.11 mins
BSTAR
0.00091495
Loading maneuver chart data...
Loading SW <> Apogee altitude chart data...
Loading historical data...
Loading historical data...
Loading historical data...
Loading historical data...
Loading historical data...
Loading historical data...
Loading historical data...
|